timestamp,surface_pressure_avg,surface_temp_avg,battery_voltage,lat,long
2020-07-17 00:09:01+00:00,256.8781,6.65,13.37,47.84626,-54.09684
2020-07-17 00:19:01+00:00,249.3081,7.99,13.05,47.84626,-54.09684
2020-07-17 00:29:01+00:00,237.2931,8.66,13.05,47.84626,-54.09684
2020-07-17 00:39:01+00:00,233.7897,7.15,13.05,47.84626,-54.09684
2020-07-17 00:49:01+00:00,233.1998,7.11,13.05,47.84626,-54.09684
2020-07-17 00:59:01+00:00,227.2181,7.9,13.05,47.84626,-54.09684
2020-07-17 01:09:01+00:00,222.1198,8.23,13.05,47.84626,-54.09684
2020-07-17 01:19:01+00:00,223.5481,8.5,12.81,47.84626,-54.09684
2020-07-17 01:29:01+00:00,222.2281,8.35,12.81,47.84626,-54.09684
2020-07-17 01:39:01+00:00,216.2565,8.18,12.81,47.84626,-54.09684
2020-07-17 01:49:01+00:00,213.2346,7.97,12.81,47.84626,-54.09684
2020-07-17 01:59:01+00:00,213.6546,7.83,12.81,47.84626,-54.09684
2020-07-17 02:09:01+00:00,210.5782,8.13,12.81,47.84626,-54.09684
2020-07-17 02:19:01+00:00,206.7181,8.42,12.73,47.84626,-54.09684
2020-07-17 02:29:01+00:00,206.7365,7.83,12.73,47.84626,-54.09684
2020-07-17 02:39:01+00:00,209.0081,6.16,12.73,47.84626,-54.09684
2020-07-17 02:49:01+00:00,207.9314,6.62,12.73,47.84626,-54.09684
2020-07-17 02:59:01+00:00,206.4198,7.1,12.73,47.84626,-54.09684
2020-07-17 03:09:01+00:00,207.0298,5.93,12.73,47.84626,-54.09684
2020-07-17 03:19:01+00:00,206.9664,6.55,12.73,47.84626,-54.09684
2020-07-17 03:29:01+00:00,205.588,8.25,12.73,47.84626,-54.09684
2020-07-17 03:39:01+00:00,206.0747,8.65,12.73,47.84626,-54.09684
2020-07-17 03:49:01+00:00,206.6248,8.8,12.73,47.84626,-54.09684
2020-07-17 03:59:01+00:00,207.9231,6.61,12.73,47.84626,-54.09684
2020-07-17 04:09:01+00:00,210.1681,6.39,12.73,47.84626,-54.09684
2020-07-17 04:19:01+00:00,214.0565,6.6,12.73,47.84626,-54.09684
2020-07-17 04:29:01+00:00,214.6248,6.89,12.73,47.84626,-54.09684
2020-07-17 04:39:01+00:00,215.6231,7.0,12.73,47.84626,-54.09684
2020-07-17 04:49:01+00:00,218.2281,6.9,12.73,47.84626,-54.09684
2020-07-17 04:59:01+00:00,220.3464,6.9,12.73,47.84626,-54.09684
2020-07-17 05:09:01+00:00,222.6014,6.82,12.73,47.84626,-54.09684
2020-07-17 05:19:01+00:00,225.3481,6.63,12.73,47.84626,-54.09684
2020-07-17 05:29:01+00:00,226.2848,6.2,12.73,47.84626,-54.09684
2020-07-17 05:39:01+00:00,229.4831,5.9,12.73,47.84626,-54.09684
2020-07-17 05:49:01+00:00,236.4431,5.8,12.73,47.84626,-54.09684
2020-07-17 05:59:01+00:00,241.4897,5.85,12.73,47.84626,-54.09684
2020-07-17 06:09:01+00:00,242.6647,6.1,12.73,47.84626,-54.09684
2020-07-17 06:19:01+00:00,244.0848,6.5,12.73,47.84626,-54.09684
2020-07-17 06:29:01+00:00,249.7264,5.95,12.73,47.84626,-54.09684
2020-07-17 06:39:01+00:00,253.5814,5.7,12.73,47.84626,-54.09684
2020-07-17 06:49:01+00:00,257.0181,5.6,12.73,47.84626,-54.09684
2020-07-17 06:59:01+00:00,262.8248,5.4,12.73,47.84626,-54.09684
2020-07-17 07:09:01+00:00,271.4914,5.3,12.73,47.84626,-54.09684
2020-07-17 07:19:01+00:00,276.153,5.63,12.73,47.84626,-54.09684
2020-07-17 07:29:01+00:00,276.9581,5.1,12.73,47.84626,-54.09684
2020-07-17 07:39:01+00:00,280.9981,5.06,12.73,47.84626,-54.09684
2020-07-17 07:49:01+00:00,286.2247,5.0,12.73,47.84626,-54.09684
2020-07-17 07:59:01+00:00,288.4164,5.0,12.73,47.84626,-54.09684
2020-07-17 08:09:01+00:00,288.923,4.9,12.73,47.84626,-54.09684
2020-07-17 08:19:01+00:00,292.2363,4.9,12.73,47.84626,-54.09684
2020-07-17 08:29:01+00:00,294.1912,4.9,12.73,47.84626,-54.09684
2020-07-17 08:39:01+00:00,294.6946,4.8,12.73,47.84626,-54.09684
2020-07-17 08:49:01+00:00,293.0063,4.75,12.73,47.84626,-54.09684
2020-07-17 08:59:01+00:00,293.2379,4.7,12.73,47.84626,-54.09684
2020-07-17 09:09:01+00:00,293.4797,4.7,12.73,47.84626,-54.09684
2020-07-17 09:19:01+00:00,294.6198,4.68,12.73,47.84626,-54.09684
2020-07-17 09:29:01+00:00,293.8363,4.67,12.73,47.84626,-54.09684
2020-07-17 09:39:01+00:00,293.9914,4.7,12.73,47.84626,-54.09684
2020-07-17 09:49:01+00:00,290.9697,4.7,12.73,47.84626,-54.09684
2020-07-17 09:59:01+00:00,287.5696,4.87,12.73,47.84626,-54.09684
2020-07-17 10:09:01+00:00,286.9847,4.9,12.73,47.84626,-54.09684
2020-07-17 10:19:01+00:00,288.1398,5.17,13.13,47.84626,-54.09684
2020-07-17 10:29:01+00:00,285.8781,6.17,13.13,47.84626,-54.09684
2020-07-17 10:39:01+00:00,284.5564,5.9,13.13,47.84626,-54.09684
2020-07-17 10:49:01+00:00,283.1364,5.8,13.13,47.84626,-54.09684
2020-07-17 10:59:01+00:00,278.3881,5.7,13.13,47.84626,-54.09684
2020-07-17 11:09:01+00:00,274.7764,6.36,13.13,47.84626,-54.09684
2020-07-17 11:19:01+00:00,273.803,6.35,14.0,47.84626,-54.09684
2020-07-17 11:29:01+00:00,267.8997,6.45,14.0,47.84626,-54.09684
2020-07-17 11:39:01+00:00,257.9064,5.58,14.0,47.84626,-54.09684
2020-07-17 11:49:01+00:00,252.6381,5.1,14.0,47.84626,-54.09684
2020-07-17 11:59:01+00:00,250.2197,5.3,14.0,47.84626,-54.09684
2020-07-17 12:09:01+00:00,240.398,5.37,14.0,47.84626,-54.09684
2020-07-17 12:19:01+00:00,231.6797,5.28,14.0,47.84626,-54.09684
2020-07-17 12:29:01+00:00,231.4214,4.9,14.0,47.84626,-54.09684
2020-07-17 12:39:01+00:00,227.4164,4.8,14.0,47.84626,-54.09684
2020-07-17 12:49:01+00:00,217.1581,4.83,14.0,47.84626,-54.09684
2020-07-17 12:59:01+00:00,214.0565,4.7,14.0,47.84626,-54.09684
2020-07-17 13:09:01+00:00,216.1498,4.67,14.0,47.84626,-54.09684
2020-07-17 13:19:01+00:00,210.7131,4.87,14.16,47.84626,-54.09684
2020-07-17 13:29:01+00:00,206.2681,5.19,14.16,47.84626,-54.09684
2020-07-17 13:39:01+00:00,207.6198,4.9,14.16,47.84626,-54.09684
2020-07-17 13:49:01+00:00,202.8914,4.63,14.16,47.84626,-54.09684
2020-07-17 13:59:01+00:00,196.4798,5.21,14.16,47.84626,-54.09684
2020-07-17 14:09:01+00:00,198.7798,6.14,14.16,47.84626,-54.09684
2020-07-17 14:19:01+00:00,200.2514,6.0,14.24,47.84626,-54.09684
2020-07-17 14:29:01+00:00,194.7098,6.05,14.24,47.84626,-54.09684
2020-07-17 14:39:01+00:00,196.2081,6.48,14.24,47.84626,-54.09684
2020-07-17 14:49:01+00:00,203.6498,6.39,14.24,47.84626,-54.09684
2020-07-17 14:59:01+00:00,201.0364,5.88,14.24,47.84626,-54.09684
2020-07-17 15:09:01+00:00,195.4248,6.38,14.24,47.84626,-54.09684
2020-07-17 15:19:01+00:00,199.0514,6.0,14.08,47.84626,-54.09684
2020-07-17 15:29:01+00:00,200.4798,5.86,14.08,47.84626,-54.09684
2020-07-17 15:39:01+00:00,194.4281,5.8,14.08,47.84626,-54.09684
2020-07-17 15:49:01+00:00,195.1664,5.7,14.08,47.84626,-54.09684
2020-07-17 15:59:01+00:00,205.0698,5.57,14.08,47.84626,-54.09684
2020-07-17 16:09:01+00:00,205.6464,5.3,14.08,47.84626,-54.09684
2020-07-17 16:19:01+00:00,202.0531,5.27,14.24,47.84626,-54.09684
2020-07-17 16:29:01+00:00,207.4664,5.35,14.24,47.84626,-54.09684
2020-07-17 16:39:01+00:00,213.9381,5.66,14.24,47.84626,-54.09684
2020-07-17 16:49:01+00:00,215.22799999999998,5.16,14.24,47.84626,-54.09684
2020-07-17 16:59:01+00:00,217.1498,5.34,14.24,47.84626,-54.09684
2020-07-17 17:09:01+00:00,222.5797,5.42,14.24,47.84626,-54.09684
2020-07-17 17:19:01+00:00,225.5131,5.42,14.24,47.84626,-54.09684
2020-07-17 17:29:01+00:00,226.5697,5.37,14.24,47.84626,-54.09684
2020-07-17 17:39:01+00:00,230.7331,4.44,14.24,47.84626,-54.09684
2020-07-17 17:49:01+00:00,240.6581,4.33,14.24,47.84626,-54.09684
2020-07-17 17:59:01+00:00,244.578,5.69,14.24,47.84626,-54.09684
2020-07-17 18:09:01+00:00,246.6664,6.14,14.24,47.84626,-54.09684
2020-07-17 18:19:01+00:00,254.6248,4.17,14.24,47.84626,-54.09684
2020-07-17 18:29:01+00:00,263.7598,3.9,14.24,47.84626,-54.09684
2020-07-17 18:39:01+00:00,268.1931,3.9,14.24,47.84626,-54.09684
2020-07-17 18:49:01+00:00,273.8597,4.03,14.24,47.84626,-54.09684
2020-07-17 18:59:01+00:00,283.0314,4.03,14.24,47.84626,-54.09684
2020-07-17 19:09:01+00:00,288.0131,4.0,14.24,47.84626,-54.09684
2020-07-17 19:19:01+00:00,290.4914,4.0,14.08,47.84626,-54.09684
2020-07-17 19:29:01+00:00,296.9581,4.0,14.08,47.84626,-54.09684
2020-07-17 19:39:01+00:00,302.7429,4.0,14.08,47.84626,-54.09684
2020-07-17 19:49:01+00:00,303.1564,4.02,14.08,47.84626,-54.09684
2020-07-17 19:59:01+00:00,308.038,4.07,14.08,47.84626,-54.09684
2020-07-17 20:09:01+00:00,317.0946,4.08,14.08,47.84626,-54.09684
2020-07-17 20:19:01+00:00,318.9147,4.1,14.0,47.84626,-54.09684
2020-07-17 20:29:01+00:00,319.0114,4.1,14.0,47.84626,-54.09684
2020-07-17 20:39:01+00:00,325.0896,4.1,14.0,47.84626,-54.09684
2020-07-17 20:49:01+00:00,330.24300000000005,4.1,14.0,47.84626,-54.09684
2020-07-17 20:59:01+00:00,328.0864,4.11,14.0,47.84626,-54.09684
2020-07-17 21:09:01+00:00,331.9929,4.13,14.0,47.84626,-54.09684
2020-07-17 21:19:01+00:00,335.5597,4.16,13.84,47.84626,-54.09684
2020-07-17 21:29:01+00:00,330.9697,4.2,13.84,47.84626,-54.09684
2020-07-17 21:39:01+00:00,329.2729,4.3,13.84,47.84626,-54.09684
2020-07-17 21:49:01+00:00,331.9563,4.3,13.84,47.84626,-54.09684
2020-07-17 21:59:01+00:00,333.0898,4.3,13.84,47.84626,-54.09684
2020-07-17 22:09:01+00:00,331.4031,4.3,13.84,47.84626,-54.09684
2020-07-17 22:19:01+00:00,331.7295,4.3,13.76,47.84626,-54.09684
2020-07-17 22:29:01+00:00,333.1046,4.3,13.76,47.84626,-54.09684
2020-07-17 22:39:01+00:00,330.6380000000001,4.3,13.76,47.84626,-54.09684
2020-07-17 22:49:01+00:00,325.873,4.39,13.76,47.84626,-54.09684
2020-07-17 22:59:01+00:00,322.258,4.76,13.76,47.84626,-54.09684
2020-07-17 23:09:01+00:00,320.2413,4.8,13.76,47.84626,-54.09684
2020-07-17 23:19:01+00:00,316.1579,4.7,13.37,47.84626,-54.09684
2020-07-17 23:29:01+00:00,308.993,4.69,13.37,47.84626,-54.09684
2020-07-17 23:39:01+00:00,301.608,4.6,13.37,47.84626,-54.09684
2020-07-17 23:49:01+00:00,296.163,4.5,13.37,47.84626,-54.09684
2020-07-17 23:59:01+00:00,292.3181,4.4,13.37,47.84626,-54.09684
